Regional Weather Roundup
Issued by NWS

Home | Current Version | Previous Version | Graphics & Text | Print | Product List | Glossary On
Versions: 1 2 3 4 5 6 7 8 9 10 11 12 13 14 15 16 17 18 19 20 21 22 23 24 25 26 27 28 29 30 31 32 33 34 35 36 37 38 39 40 41 42 43 44 45 46 47 48 49 50
454
ASUS43 KDMX 271401
RWRIA

WEATHER ROUNDUP FOR IOWA
NATIONAL WEATHER SERVICE DES MOINES IA
800 AM CST MON FEB 27 2017

NOTE: "FAIR" INDICATES FEW OR NO CLOUDS BELOW 12,000 FEET WITH NO
SIGNIFICANT WEATHER AND/OR OBSTRUCTIONS TO VISIBILITY.

* - THESE STATIONS ARE NOT NWS STATIONS...THUS NOT UNDER NWS
QUALITY CONTROL.  THEY ALSO DO NOT REPORT WEATHER SUCH
AS PRECIPITATION OR FOG.

IAZ001>003-012>014-020>022-031>034-043>046-271500-
   NORTHWEST IOWA

CITY           SKY/WX    TMP DP  RH WIND       PRES   REMARKS
CARROLL *      SUNNY     19  19 100 CALM      29.99R
CHEROKEE *     CLEAR     13  13  98 CALM      29.96S
DENISON *        N/A     19  18  93 CALM      29.95S
LE MARS *      CLEAR     21  18  86 S5        29.95S WCI  15
SHELDON *      CLEAR     21  21 100 SE6       29.92S WCI  14
SIOUX CITY     CLEAR     17  15  92 SE8       29.96R WCI   7
SPENCER        CLEAR     18  14  84 CALM      29.95R
STORM LAKE *   PTCLDY    21  16  79 S14       29.95S WCI   8
$$

IAZ055>058-069>071-079>083-090>094-271500-
   SOUTHWEST IOWA

CITY           SKY/WX    TMP DP  RH WIND       PRES   REMARKS
ATLANTIC *     SUNNY     23  23 100 CALM      30.00R
AUDUBON *      SUNNY     21  18  86 CALM      29.99R
CLARINDA *     CLOUDY    23  23 100 CALM      30.04R
COUNCIL BLFS * SUNNY     27  25  93 SE8       29.97R WCI  18
CRESTON *      FOG       28  28 100 S6        30.02R VSB<1/4 WCI  22
HARLAN  *      SUNNY     19  19 100 CALM      30.01F
LAMONI         FOG       28  28 100 S7        30.03R VSB<1/4 WCI  21
RED OAK *      SUNNY     25  23  93 CALM      30.00S
SHENANDOAH *   SUNNY     25  23  93 CALM      30.01R
$$

IAZ047>049-059>061-072>074-084-271500-
   CENTRAL IOWA

CITY           SKY/WX    TMP DP  RH WIND       PRES   REMARKS
AMES           SUNNY     24  24 100 CALM      30.02S
ANKENY *       SUNNY     25  23  93 CALM      30.04R FOG
BOONE *        SUNNY     28  25  86 SE7       29.99F WCI  21
CHARITON *     FOG       28  28 100 S7        30.03S VSB 1/4 WCI  21
DES MOINES     SUNNY     30  25  81 S5        30.03R WCI  25
GRINNELL*      SUNNY     30  28  93 S5        30.05R WCI  25
KNOXVILLE *    SUNNY     30  30 100 S6        30.02S WCI  24
MARSHALLTOWN   SUNNY     25  22  88 SE6       30.03R WCI  18
NEWTON *       SUNNY     28  27  93 SE5       30.03S WCI  23
PELLA *        SUNNY     32  31  94 S5        30.06R WCI  27
PERRY *          N/A     26  25  96 E3        30.01R
$$

IAZ004>006-015-016-023>025-035-036-271500-
   NORTH CENTRAL IOWA

CITY           SKY/WX    TMP DP  RH WIND       PRES   REMARKS
ALGONA *       CLOUDY    19  19 100 S9        29.97R WCI   9
CLARION *      SUNNY     23  21  93 SE12      29.99F WCI  12
ESTHERVILLE    CLEAR     16  13  88 S8        29.95R WCI   5
FORT DODGE *   SUNNY     16  10  79 CALM      30.00R
MASON CITY     CLOUDY    12  12 100 S3        30.01S FOG
FOREST CITY *    N/A     16  12  86 CALM      29.99S FOG
WEBSTER CITY * SUNNY     23  19  86 SE10      29.98S WCI  12
IOWA FALLS *     N/A     27  25  91 SE6       30.02F WCI  20
$$

IAZ007>011-017>019-026>030-037>042-050>054-066-271500-
   NORTHEAST IOWA

CITY           SKY/WX    TMP DP  RH WIND       PRES   REMARKS
CEDAR RAPIDS   MOSUNNY   30  29  96 VRB7      30.05S WCI  23
CHARLES CITY * SUNNY     23  23 100 SE7       30.03R FOG     WCI  15
CLINTON *      PTSUNNY   33  30  88 SE9       30.11R WCI  25
DECORAH *      SUNNY     25  23  93 S7        30.03R WCI  17
DUBUQUE        CLOUDY    30  25  81 SE12      30.05F WCI  20
MONTICELLO *   CLOUDY    30  27  86 SE7       30.07R WCI  23
OELWEIN *      SUNNY     28  28 100 SE8       30.04S WCI  20
WATERLOO       SUNNY     26  24  92 SE5       30.04R FOG     WCI  20
$$

IAZ064-065-067-068-078-271500-
   EAST CENTRAL IOWA

CITY           SKY/WX    TMP DP  RH WIND       PRES   REMARKS
DAVENPORT      MOSUNNY   32  30  92 S9        30.10R WCI  24
IOWA CITY      PTSUNNY   32  29  88 SE5       30.10R WCI  27
MUSCATINE *    SUNNY     28  27  93 CALM      30.11R
QUAD CITIES    SUNNY     33  30  88 S3        30.10R
$$

IAZ062-063-075>077-085>089-095>099-271500-
   SOUTHEAST IOWA

CITY           SKY/WX    TMP DP  RH WIND       PRES   REMARKS
BURLINGTON     SUNNY     33  33 100 CALM      30.10R
FAIRFIELD *    FOG       32  32 100 S7        30.08R VSB<1/4 WCI  26
FORT MADISON * SUNNY     34  30  86 SE5       30.11  WCI  30
KEOKUK *         N/A     32  32 100 E5        30.10R WCI  27
CENTERVILLE *  FOG       30  30 100 CALM      30.07S VSB 1/4
OTTUMWA        FOG       31  31 100 S9        30.06R VSB<1/4 WCI  23
WASHINGTON *   SUNNY     32  32 100 S8        30.09S WCI  25
$$

ABBREVIATIONS USED IN REMARKS
   TC - TEMPERATURES IN CELSIUS
  WCI - WIND CHILL INDEX
   HX - HEAT INDEX
  VSB - VISIBILITY
$$





USA.gov is the U.S. government's official web portal to all federal, state and local government web resources and services.